Location: Cahas Mountain Overlook
(37.0833°N, 80.1000°W)
Time: 11:44:53
(UTC-05:00)

SR - Pass Details

Date: 10 December 2023
Orbit: 574 x 867 km, 66.7° (Epoch: 29 February)

Event Time Altitude Azimuth Distance (km) Brightness Sun altitude
Rises 10:45:50 0° 225° (SW) 3,239 ? 26.6°
Reaches altitude 10° 10:48:16 10° 232° (SW) 2,357 ? 26.7°
Maximum altitude 10:53:29 44° 304° (WNW) 1,137 ? 27.1°
Drops below altitude 10° 10:59:00 10° 16° (NNE) 2,496 ? 27.5°
Sets 11:01:40 0° 22° (NNE) 3,451 ? 27.7°
